Home   Weather   Osterode am Harz   Past weeks

Flag for Germany Past Weather in Osterode am Harz, Lower Saxony, Germany — Yesterday and Last 2 Weeks

Now
52 °F

Clear.


Feels Like: 51 °F
Forecast: 49 / 66 °F
Wind: 5 mph from East

Location: Hannover

Current Time: Sep 25, 2016 at 5:50:53 AM

Latest Report: Sep 25, 2016 at 5:20 AM


Visibility: 10 mi

Pressure: 30.12 "Hg

Humidity: 88%

Dew Point: 48 °F

Location of Osterode am HarzLocation

Past Weather in Osterode am Harz — Graph

°F

Osterode am Harz Temperature Yesterday

Maximum temperature yesterday: 72 °F (at 2:20 PM)
Minimum temperature yesterday: 43 °F (at 6:50 AM)
Average temperature yesterday: 58 °F

High & Low Weather Summary for the Past Weeks

 TemperatureHumidityPressure
High90 °F (Sep 13, 2:20 PM)100% (Sep 21, 3:50 AM)30.30 "Hg (Sep 21, 3:50 AM)
Low43 °F (Sep 24, 6:50 AM)29% (Sep 13, 5:50 PM)29.86 "Hg (Sep 15, 5:50 PM)
Average64 °F70%30.06 "Hg
* Reported Sep 10 4:20 AM — Sep 25 4:20 AM, Osterode am Harz, Weather by CustomWeather, © 2016

Note: Actual official high and low records may vary slightly from our data, if they occured in-between our weather recording intervals... More about our weather records

Advertising

Osterode am Harz Weather History for the Previous 24 Hours

Scroll right to see more
 ConditionsComfort  
Time TempWeatherWind HumidityBarometerVisibility
4:20 AM
Sun, Sep 25
52 °FClear.5 mph88%30.15 "Hg10 mi
3:50 AM54 °FPassing clouds.5 mph82%30.15 "HgN/A
3:20 AM54 °FClear.5 mph82%30.15 "Hg10 mi
2:50 AM54 °FPassing clouds.5 mph82%30.15 "HgN/A
2:20 AM54 °FPassing clouds.3 mph82%30.15 "HgN/A
1:50 AM54 °FClear.2 mph82%30.18 "Hg10 mi
1:20 AM54 °FClear.2 mph82%30.18 "Hg10 mi
12:50 AM54 °FClear.5 mph88%30.18 "Hg10 mi
12:20 AM55 °FClear.5 mph82%30.18 "Hg10 mi
11:50 PM
Sat, Sep 24
57 °FClear.5 mph77%30.18 "Hg10 mi
11:20 PM55 °FClear.6 mph82%30.18 "Hg10 mi
10:50 PM55 °FClear.6 mph82%30.18 "Hg10 mi
10:20 PM57 °FClear.6 mph77%30.18 "Hg10 mi
9:50 PM57 °FClear.6 mph77%30.18 "Hg10 mi
9:20 PM59 °FClear.5 mph72%30.18 "Hg10 mi
8:50 PM61 °FClear.3 mph68%30.18 "Hg10 mi
8:20 PM61 °FClear.3 mph68%30.18 "Hg10 mi
7:50 PM63 °FClear.3 mph64%30.18 "Hg10 mi
7:20 PM64 °FClear.3 mph60%30.18 "Hg10 mi
6:50 PM66 °FSunny.2 mph60%30.18 "Hg10 mi
6:20 PM68 °FSunny.1 mph60%30.18 "Hg10 mi
5:50 PM72 °FSunny.2 mph47%30.21 "Hg10 mi
5:20 PM70 °FSunny.3 mph46%30.21 "Hg10 mi
4:50 PM72 °FSunny.7 mph44%30.21 "Hg10 mi
4:20 PM72 °FSunny.2 mph44%30.21 "Hg10 mi
3:50 PM70 °FPassing clouds.7 mph50%30.21 "HgN/A
3:20 PM70 °FPassing clouds.5 mph46%30.24 "HgN/A
2:50 PM72 °FPartly sunny.10 mph47%30.24 "HgN/A
2:20 PM72 °FPassing clouds.8 mph44%30.24 "HgN/A
1:50 PM70 °FPassing clouds.7 mph43%30.27 "HgN/A
1:20 PM70 °FScattered clouds.8 mph46%30.27 "HgN/A
12:50 PM68 °FPartly sunny.7 mph46%30.27 "HgN/A
12:20 PM70 °FPartly sunny.6 mph46%30.27 "HgN/A
11:50 AM66 °FPassing clouds.7 mph52%30.27 "HgN/A
11:20 AM66 °FSunny.6 mph52%30.27 "Hg10 mi
10:50 AM64 °FSunny.2 mph52%30.27 "Hg10 mi
10:20 AM63 °FSunny.2 mph59%30.27 "Hg10 mi
9:50 AM61 °FSunny.2 mph68%30.27 "Hg10 mi
9:20 AM55 °FSunny.2 mph82%30.27 "Hg10 mi
8:50 AM50 °FSunny.1 mph88%30.30 "Hg10 mi
8:20 AM48 °FClear.No wind94%30.27 "Hg5 mi
7:50 AM45 °FFog.2 mph93%30.27 "Hg1 mi
7:20 AM43 °FFog.1 mph100%30.27 "Hg1 mi
6:50 AM43 °FFog.1 mph100%30.27 "Hg1 mi
6:20 AM45 °FRain. Overcast.1 mph100%30.27 "Hg1 mi
5:50 AM46 °FRain. Overcast.No wind93%30.27 "Hg1 mi
5:20 AM46 °FSleet. Overcast.1 mph93%30.27 "Hg2 mi
Weather by CustomWeather, © 2016

See weather overviewHow to use our weather pages